Tacoma Narrows, WA
on Monday, November 5, 2012

Monday
Previous Day Next Day
Daily Summary
 ActualAverageRecord
Temperature
Mean Temperature °F °F  
Max Temperature 57°F 51°F 64°F (1997)
Min Temperature 46°F 41°F 28°F (2003)
Degree Days
Heating Degree Days 12    
Growing Degree Days2 (Base °F )  
Moisture
Dew Point 47°F   
Average Humidity 83    
Maximum Humidity 94    
Minimum Humidity 59    
Precipitation
Precipitation 0.01 in in in ()
Wind
Wind Speed 7 mph   
Max Wind Speed 12 mph   
Max Gust Speed mph   
Visibility 6 miles   
Events Rain   
Averages and records for this station are not official NWS values.
Key: T is trace of precipitation, MM is missing value
Source: NWS Daily Summary
Seasonal Weather Averages
Time(PST)TemperatureDew PointHumidity Pressure Visibility Wind DirectionWind SpeedGust SpeedPrecipitationEvents Conditions
12:16 AM 57.2°F 55.4°F 94% 30.30 in 9.0 miles SW 9.2 mph - N/A   Overcast
12:26 AM 57.2°F 53.6°F 88% 30.29 in 10.0 miles SSW 10.4 mph - 0.00 in   Overcast
12:53 AM 57.0°F 54.0°F 89% 30.30 in 10.0 miles South 8.1 mph - 0.00 in   Overcast
1:51 AM 57.2°F 53.6°F 88% 30.34 in 10.0 miles NNW 5.8 mph - N/A   Overcast
1:53 AM 57.0°F 54.0°F 89% 30.34 in 10.0 miles NW 5.8 mph - N/A   Overcast
2:17 AM 53.6°F 51.8°F 94% 30.34 in 7.0 miles North 6.9 mph - N/A   Overcast
2:53 AM 53.1°F 50.0°F 89% 30.36 in 7.0 miles North 8.1 mph - N/A   Overcast
3:08 AM 51.8°F 50.0°F 94% 30.36 in 1.8 miles NNE 5.8 mph - 0.01 in Rain Light Rain
3:12 AM 51.8°F 50.0°F 94% 30.36 in 2.0 miles NNE 5.8 mph - 0.01 in Rain Light Rain
3:28 AM 51.8°F 50.0°F 94% 30.36 in 1.8 miles NE 8.1 mph - 0.01 in   Overcast
3:35 AM 51.8°F 50.0°F 94% 30.36 in 2.5 miles NE 5.8 mph - 0.01 in   Overcast
3:53 AM 52.0°F 50.0°F 93% 30.37 in 2.0 miles NE 5.8 mph - 0.01 in   Overcast
4:08 AM 51.8°F 50.0°F 94% 30.36 in 2.0 miles NE 5.8 mph - N/A   Overcast
4:45 AM 51.8°F 50.0°F 94% 30.37 in 3.0 miles NE 9.2 mph - N/A   Overcast
4:53 AM 52.0°F 48.9°F 89% 30.37 in 4.0 miles NE 6.9 mph - N/A   Overcast
5:17 AM 51.8°F 48.2°F 88% 30.37 in 6.0 miles NE 5.8 mph - N/A   Scattered Clouds
5:53 AM 52.0°F 48.0°F 86% 30.37 in 6.0 miles NE 5.8 mph - N/A   Partly Cloudy
6:53 AM 52.0°F 46.9°F 83% 30.37 in 6.0 miles NNE 3.5 mph - N/A   Haze
7:53 AM 51.1°F 46.0°F 83% 30.38 in 7.0 miles Calm Calm - N/A   Scattered Clouds
8:53 AM 53.1°F 46.9°F 80% 30.39 in 6.0 miles NNE 3.5 mph - N/A   Haze
9:53 AM 54.0°F 46.9°F 77% 30.38 in 6.0 miles NNE 4.6 mph - N/A   Haze
10:53 AM 55.0°F 45.0°F 69% 30.38 in 7.0 miles NNE 4.6 mph - N/A   Scattered Clouds
11:53 AM 55.9°F 45.0°F 67% 30.38 in 7.0 miles North 9.2 mph - N/A   Scattered Clouds
12:53 PM 55.9°F 42.1°F 60% 30.36 in 8.0 miles NNE 9.2 mph - N/A   Scattered Clouds
1:53 PM 55.9°F 43.0°F 62% 30.36 in 9.0 miles North 11.5 mph - N/A   Clear
2:53 PM 55.0°F 41.0°F 59% 30.32 in 9.0 miles North 10.4 mph - N/A   Scattered Clouds
3:53 PM 55.0°F 41.0°F 59% 30.32 in 9.0 miles North 6.9 mph - N/A   Clear
4:53 PM 52.0°F 44.1°F 74% 30.29 in 8.0 miles NNE 4.6 mph - N/A   Clear
5:53 PM 50.0°F 44.1°F 80% 30.29 in 8.0 miles North 6.9 mph - N/A   Clear
6:53 PM 51.1°F 42.1°F 71% 30.27 in 9.0 miles North 8.1 mph - N/A   Clear
7:53 PM 50.0°F 43.0°F 77% 30.26 in 8.0 miles North 5.8 mph - N/A   Clear
8:53 PM 50.0°F 44.1°F 80% 30.23 in 8.0 miles Variable 3.5 mph - N/A   Clear
9:53 PM 48.0°F 44.1°F 86% 30.21 in 6.0 miles Calm Calm - N/A   Clear
10:53 PM 48.0°F 44.1°F 86% 30.19 in 7.0 miles Calm Calm - N/A   Clear
11:53 PM 46.9°F 43.0°F 86% 30.17 in 7.0 miles Calm Calm - N/A   Clear
Moon Phase
Nov. 05 Nov. 06 Nov. 13 Nov. 20 Nov. 28
Sunrise:07:00 AM (PST) Moon Rise:10:30 PM (PST)11/5
Sunset:04:46 PM (PST) Moon Set:12:23 PM (PST)11/5

Copyright © 2014 The Weather Underground, Inc.